This is the latest recevied weather packets stored in our database for station/object JH1LWU-13. If no packets are shown the sender has not sent any weather packets the latest 10 day(s).
| Time | Temp. | Humidity | Pressure | Rain* | Wind** | Luminosity | Snow |
|---|---|---|---|---|---|---|---|
| 1788016688 | 18.89° C | 83% | 1007 hPa | - | - | - | - |
| 1788014887 | 18.89° C | 82% | 1007 hPa | - | - | - | - |
| 1788013086 | 18.89° C | 83% | 1007 hPa | - | - | - | - |
| 1788011285 | 18.33° C | 83% | 1007 hPa | - | - | - | - |
| 1788009484 | 18.89° C | 81% | 1007 hPa | - | - | - | - |
| 1788007683 | 19.44° C | 80% | 1008 hPa | - | - | - | - |
| 1788005882 | 18.89° C | 80% | 1007 hPa | - | - | - | - |
| 1788004081 | 18.89° C | 80% | 1005 hPa | - | - | - | - |
| 1788002280 | 19.44° C | 80% | 1008 hPa | - | - | - | - |
| 1788000479 | 18.89° C | 82% | 1008 hPa | - | - | - | - |
| 1787998678 | 18.89° C | 82% | 1007 hPa | - | - | - | - |
| 1787996877 | 18.89° C | 82% | 1008 hPa | - | - | - | - |
| 1787995076 | 19.44° C | 82% | 1005 hPa | - | - | - | - |
| 1787993275 | 19.44° C | 83% | 1005 hPa | - | - | - | - |
| 1787991474 | 19.44° C | 82% | 1005 hPa | - | - | - | - |
| 1787989673 | 20° C | 81% | 1007 hPa | - | - | - | - |
| 1787987872 | 20° C | 79% | 1004 hPa | - | - | - | - |
| 1787986071 | 20° C | 79% | 1007 hPa | - | - | - | - |
| 1787984270 | 20° C | 79% | 1005 hPa | - | - | - | - |
| 1787982469 | 20° C | 78% | 1005 hPa | - | - | - | - |
| 1787980668 | 20.56° C | 77% | 1005 hPa | - | - | - | - |
| 1787978867 | 20.56° C | 77% | 1005 hPa | - | - | - | - |
| 1787977066 | 21.11° C | 76% | 1006 hPa | - | - | - | - |
| 1787975265 | 21.11° C | 75% | 1006 hPa | - | - | - | - |
| 1787973464 | 21.11° C | 75% | 1006 hPa | - | - | - | - |
* Rain since midnight (hover to see other rain measurements)
** Current wind speed in m/s (hover to see current wind gust speed)